Skip Page Navigation
NASA JPL Caltech
NASA Logo - Jet Propulsion Laboratory + View the NASA Portal
+ Near-Earth Object (NEO) Program
Search JPL
JPL Home Earth Solar System Stars & Galaxies Technology
JPL Solar System Dynamics
BODIES ORBITS EPHEMERIDES TOOLS PHYSICAL DATA DISCOVERY FAQ SITE MAP
JPL Small-Body Database Browser
Search: [ help ]  
117086 Loczy (2004 LZ23)
Classification: Main-belt Asteroid          SPK-ID: 2117086
Ephemeris | Orbit Diagram | Orbital Elements | Physical Parameters | Discovery Circumstances ]

[ show orbit diagram ]
Orbital Elements at Epoch 2456400.5 (2013-Apr-18.0) TDB
Reference: MPO251124 (heliocentric ecliptic J2000)
 Element Value Uncertainty (1-sigma)   Units 
e 0.0809457 n/a  
a 3.1194796 n/a AU
q 2.8669711 n/a AU
i 21.57700 n/a deg
node 149.86263 n/a deg
peri 312.40435 n/a deg
M 3.72772 n/a deg
tp 2456379.6616926
(2013-Mar-28.16169260)
n/a JED
period 2012.4340474
5.51
n/a
n/a
d
yr
n 0.17888785 n/a deg/d
Q 3.3719881 n/a AU
  Orbit Determination Parameters
   # obs. used (total)      186  
   first obs. used      1992-??-??  
   last obs. used      2013-01-06  
   # oppositions      12  
   planetary ephem.      DE403  
   condition code      0  
   fit RMS      0.52  
   data source      MPC:mpu  
   producer      MPCLINUX  

Additional Information
 T_jup = 3.103 

Ephemeris | Orbit Diagram | Orbital Elements | Physical Parameters | Discovery Circumstances ]

Physical Parameter Table
Parameter Symbol Value Units Sigma Reference Notes
absolute magnitude H 14.7 mag n/a MPO251124  

117086 Lóczy           Discovered 2004 June 8 by K. Sárneczky and G. Szabó at Piszkéstet{o´´}.
Lajos Lóczy (1849-1920) is one of the most famous Hungarian geologists. He was the first western geologist to describe the structure, geomorphology and stratigraphy of mountain chains bordering the Tibetan Plateau. His monograph on Lake Balaton is the basis of modern research on this famous lake.
NOTE: some special characters may not display properly (any characters within {} are an attempt to place the proper accent above a character)
Reference: 20080520/MPCPages.arcLast Updated: 2008-05-22
Ephemeris | Orbit Diagram | Orbital Elements | Physical Parameters | Discovery Circumstances ]
ABOUT SSD CREDITS/AWARDS PRIVACY/COPYRIGHT GLOSSARY LINKS
FirstGov 2013-May-25 12:41 UT
(server date/time)  
NASA Home Page
Site Manager:   Donald K. Yeomans
Webmaster  Alan B. Chamberlin